SL-16 R/B (31793 NORAD) Tracking and Keplerian Element Data

This shows tracking and keplerian element data for the satellite.

Feedback or suggestion? Click here.




ElementValue
Catalog31793
NameSL-16 R/B
Epoch Orbit58816
Epoch Day322.62186139
Epoch Year2018
RAAN18.0616
Inclination70.9778
Eccentricity0.0002286
Argument of Perigee278.2618
Mean Anonmoly190.4788
Mean Motion14.14410941
Decay Rate-1.55E-06
L11 31793U 07029B 18322.62186139 -.00000155 00000-0 -56157-4 0 9994
L22 31793 70.9778 18.0616 0002286 278.2618 190.4788 14.14410941588161

Live tracking and technical data element details for SL-16 R/B (NORAD 31793). SL-16 R/B can be tracked NOW for your location showing map with azimuth and elevation plus other details from your city location.

Track the satellite on the map from your city or location and see movement details for azimuth, elevation, latitude, longitude, range, height, and movement on the map or in text.







IsCatalogInMostPopularTable: catalog: 31793, numindb: 40
Update: records affected: 1



GetName: 31793 SL-16 R/B

Hit Count: updated at: Wed, 21 Nov 2018 05:25:29 GMT